Location: Eckley
(40.9930°N, 75.8630°W)
Time: 20:05:33
(UTC-04:00)

Daily predictions for brighter satellites

Satellite Brightness Start Highest point End
(mag) Time Altitude Azimuth Time Altitude Azimuth Time Altitude Azimuth
Cosmos 1818 3.8 21:03:04 10° NNW 21:08:29 63° NE 21:13:51 10° SE
ATLAS 5 CENTAUR R/B 1.7 21:06:23 10° SSW 21:10:58 74° ESE 21:15:59 10° NE
Cosmos 1726 4.2 21:12:47 10° NE 21:14:44 14° ENE 21:16:41 10° ESE
RESURS DK-1 4.1 21:13:58 10° N 21:17:10 21° NE 21:20:21 10° ESE
Cosmos 1076 Rocket 4.0 21:15:03 10° SSE 21:19:08 41° E 21:23:14 10° NNE
Spot 1 4.0 21:16:15 10° SSE 21:20:20 87° ENE 21:24:36 10° NNW
Cosmos 1727 Rocket 4.2 21:15:04 10° S 21:21:23 84° W 21:27:47 10° N
Cosmos 2237 Rocket 3.6 21:22:19 10° NW 21:27:21 35° WSW 21:32:23 10° SSW
Cosmos 1939 Rocket 3.5 21:26:47 10° S 21:30:43 57° W 21:34:44 10° NNW
Cosmos 1340 Rocket 3.5 21:28:53 10° SSW 21:32:51 58° WNW 21:36:53 10° N
Cosmos 2221 2.5 21:28:55 10° N 21:33:20 85° E 21:37:43 10° S
CZ-4B DEB 3.0 21:31:41 10° S 21:34:38 62° W 21:37:35 10° NNW
Cosmos 1603 4.4 21:30:23 10° N 21:35:44 41° ENE 21:40:30 12° SE
Envisat 4.0 21:31:01 10° S 21:35:52 46° W 21:40:45 10° NNW
Meteor 1-29 3.3 21:35:12 10° N 21:38:37 67° WNW 21:42:03 10° SSW
Tiangong 1 1.3 21:36:00 10° W 21:38:48 57° N 21:41:32 10° ENE
Cosmos 2227 Rocket 4.5 21:37:20 10° WSW 21:42:12 29° NW 21:47:05 10° N
Cosmos 371 Rocket 4.5 21:39:27 10° N 21:43:40 29° ENE 21:47:08 13° ESE
Cosmos 1674 2.6 21:40:01 10° S 21:43:46 85° E 21:47:33 10° N
Cosmos 2208 Rocket 4.1 21:38:55 10° NNW 21:44:16 87° WSW 21:49:33 11° SSE
MetOp-A 4.2 21:40:22 11° SSE 21:45:33 65° ENE 21:50:52 10° N
ARGOS 3.5 21:42:43 12° SE 21:47:30 53° ENE 21:52:45 10° N
Cosmos 2016 Rocket 4.2 21:41:22 10° N 21:47:30 55° E 21:52:56 13° SSE
Okean 3 Rocket 4.0 21:43:14 10° SSW 21:47:43 67° W 21:52:11 10° N
SAR-Lupe-4 4.4 21:44:30 10° S 21:47:58 48° W 21:51:27 10° NNW
CZ-3B R/B 3.8 21:46:45 10° SW 21:49:38 73° SE 21:59:15 10° NE
Cosmos 1943 4.4 21:45:53 10° N 21:50:45 28° NE 21:54:57 13° ESE
SPOT 5 3.3 21:47:02 14° SE 21:50:58 49° ENE 21:55:53 10° N
Lacrosse 5 2.3 21:46:13 10° NW 21:51:12 55° NE 21:55:19 15° ESE
GPS 2-05 Rocket1 4.4 21:49:49 10° SSW 21:51:24 15° S 21:51:24 15° S
SL-16 R/B 2.9 21:47:01 10° NNW 21:52:31 52° WSW 21:57:58 10° S
Cosmos 1908 3.4 21:48:39 10° NNW 21:52:32 75° W 21:56:19 10° S
Cosmos 1570 Rocket 4.4 21:50:54 10° NNW 21:56:08 61° WSW 22:01:15 10° S
SPOT 1/Viking Rocket 4.1 21:54:30 16° SE 21:58:15 43° ENE 22:03:07 10° N
Cosmos 1766 Rocket 3.4 21:55:28 10° S 21:59:47 79° E 22:04:08 10° N
KORONAS-FOTON 3.7 21:57:11 10° S 22:00:59 90° NW 22:04:47 10° N
Abrixas rocket 3.4 22:00:28 10° NW 22:03:31 37° NNE 22:06:04 13° E
Cosmos 1242 Rocket 3.2 22:00:18 10° NNW 22:03:58 55° W 22:07:16 12° S
Cosmos 1328 Rocket 4.0 22:01:15 10° N 22:05:24 44° ENE 22:07:53 21° SE
USA 245 3.1 22:07:27 23° SSE 22:09:29 74° ENE 22:13:42 10° N
Cosmos 1515 Rocket 4.3 22:07:16 10° N 22:11:19 37° ENE 22:13:24 23° SE
YAOGAN 11 4.1 22:08:20 19° SSE 22:11:34 81° ENE 22:16:09 10° N
Cosmos 1151 Rocket 4.2 22:07:57 10° NNE 22:11:49 29° ENE 22:13:43 21° ESE
H-2A R/B 3.7 22:13:53 16° E 22:15:47 21° ENE 22:18:57 10° NNE
Cosmos 1743 Rocket 3.7 22:13:15 21° SSE 22:15:54 51° E 22:20:07 10° NNE
USA 234 3.2 22:09:55 10° NE 22:16:26 67° SE 22:22:55 10° SW
Cosmos 2228 Rocket 3.3 22:15:01 10° N 22:19:33 60° E 22:22:04 25° SSE
Cosmos 468 Rocket 4.0 22:17:35 10° NNW 22:22:44 81° WSW 22:26:04 22° SSE
SL-08 RB Rocket 3.7 22:21:53 22° SSE 22:24:52 86° WSW 22:29:30 10° NNW
Terra 2.7 22:24:00 23° ESE 22:26:16 37° ENE 22:30:38 10° N
ERS-1 Rocket 4.0 22:21:51 10° SSW 22:26:34 41° W 22:31:19 10° NNW
Nimbus 7 Rocket 4.4 22:25:57 10° NNE 22:32:01 81° ESE 22:37:29 12° SSW
H-2A ROCKET BODY 3.7 22:28:28 10° SSW 22:32:26 25° SE 22:43:26 10° E
Cosmos 332 Rocket 3.9 22:29:25 10° NNW 22:34:19 75° WSW 22:37:02 26° S
Cosmos 2123 Rocket 4.1 22:36:04 11° SSW 22:42:00 75° W 22:48:14 10° N
H-2A R/B 2.2 22:39:05 24° S 22:42:20 78° WSW 22:47:48 10° NNW
Meteor 1-27 4.4 22:37:07 10° N 22:42:54 64° ENE 22:45:45 30° SSE
Meteor 2-10 4.3 22:37:24 10° NNW 22:43:01 79° W 22:46:31 25° S
Cosmos 220 Rocket 4.3 22:39:19 10° SSW 22:43:39 69° WNW 22:48:03 10° NNE
Cosmos 1626 2.5 22:44:38 42° ESE 22:45:08 45° E 22:48:42 10° NNE
Cosmos 2058 3.0 22:44:54 39° SSE 22:46:13 60° E 22:50:23 10° NNE
Cosmos 1726 3.5 22:46:50 10° NNW 22:50:12 34° W 22:52:04 20° SW
CZ-4B R/B 4.4 22:45:47 10° NE 22:50:28 32° E 22:51:29 29° ESE
Cosmos 2263 Rocket 2.1 22:46:58 21° S 22:50:44 69° ESE 22:56:18 10° NNE
Cosmos 540 Rocket 4.3 22:46:49 10° N 22:51:37 37° ENE 22:53:35 27° ESE
Cosmos 1300 3.6 22:50:17 10° NNW 22:53:56 42° W 22:55:37 26° SSW
RESURS DK-1 3.5 22:51:31 10° NW 22:55:19 35° WSW 22:56:54 26° SSW
SL-14 R/B 4.4 22:53:30 17° SW 22:56:17 42° WNW 23:00:03 10° N
Cosmos 2285 Rocket 4.3 22:52:32 10° NNW 22:58:46 55° ENE 23:01:42 31° SE
Sich 1 4.5 22:59:55 22° E 22:59:55 22° E 23:03:07 10° NE
ERBS 2.6 23:03:14 10° NW 23:06:28 54° WSW 23:06:28 54° WSW
deb Chang Zheng 4 3.6 23:04:20 10° NNE 23:08:41 62° ESE 23:09:31 51° SSE
PSLV R/B 4.0 23:09:22 38° NE 23:09:22 38° NE 23:11:31 10° N
Cosmos 1356 4.2 23:11:37 38° SW 23:12:31 49° WNW 23:15:56 10° N
Cosmos 2151 3.5 23:11:00 30° SW 23:12:53 57° W 23:17:09 10° N
Cosmos 1707 Rocket 4.3 23:09:07 10° N 23:13:18 37° ENE 23:13:54 35° E
Tiangong 1 2.3 23:11:42 10° WNW 23:13:23 33° WNW 23:13:23 33° WNW
Cosmos 1354 Rocket 3.9 23:16:07 34° SSW 23:18:27 89° ESE 23:23:43 10° NNE
Cosmos 1844 Rocket 3.7 23:24:43 27° E 23:24:43 27° E 23:29:13 10° NE
Cosmos 1455 2.0 23:23:31 10° N 23:27:24 85° W 23:27:33 81° SSW
CZ-4C R/B 2.6 23:28:14 39° ESE 23:28:14 39° ESE 23:33:31 10° NE
Cosmos 1666 Rocket 3.9 23:28:28 47° E 23:28:36 48° E 23:32:54 10° NNE
CARTOSAT-1 4.3 23:29:27 38° SW 23:30:26 44° W 23:34:36 10° NNW
Cosmos 1464 Rocket 4.0 23:24:34 10° N 23:30:43 68° E 23:32:45 43° SSE
Cosmos 841 Rocket 4.2 23:27:19 10° NNW 23:32:17 44° WSW 23:33:53 34° SW
Lacrosse 5 3.2 23:29:45 10° WNW 23:33:52 25° WSW 23:34:30 25° SW
Cosmos 1943 3.9 23:29:37 10° NW 23:34:55 43° WSW 23:36:46 33° SSW
SL-19 R/B 4.4 23:29:37 10° N 23:34:57 68° WNW 23:37:45 30° SSW
Cosmos 1869 3.4 23:34:10 10° N 23:37:55 60° ENE 23:37:55 60° ENE
Cosmos 1805 Rocket 3.4 23:39:13 69° SSW 23:39:42 83° W 23:44:04 10° N
Abrixas rocket 4.2 23:37:14 10° WNW 23:38:41 22° W 23:38:41 22° W
Cosmos 1633 Rocket 3.2 23:44:55 59° E 23:44:55 59° E 23:49:07 10° NNE
CZ-4C R/B 3.3 23:46:43 80° S 23:46:57 89° W 23:51:22 10° NNW
Cosmos 967 Rocket 4.5 23:41:40 10° NNW 23:48:03 78° ENE 23:50:08 45° SE
Cosmos 1400 Rocket 4.1 23:49:33 31° ENE 23:49:33 31° ENE 23:52:35 10° NNE
H-2A R/B 3.1 23:51:01 33° WSW 23:51:35 34° W 23:55:30 10° NNW
SME Rocket 2.9 23:52:50 78° WSW 23:52:53 78° WSW 23:57:25 10° NNW
